Content
SEND FEEDBACK

Daily
Averages
Monthly
Summary
Turkmenistan

KURTILE, TURKMENISTAN


Home > Asia > Turkmenistan
Elevation: 748 feet     Latitude: 37 58N     Longitude: 058 19E

WEATHER
 
SELECT A DAY
Number of Records: 177,491;   Date Range: 3/15/97 - 9/3/14
 
SHARE

PRINT THIS DATA

[ ← Previous Day ]
WEATHER ALMANAC - JANUARY 17, 2013
[ Next Day → ]
[ °C ]   °F
Weather ElementAverageHighLow
Temperature32.9 °F46.4 °F (3:00 pm)21.2 °F (8:00 am)
Dewpoint24.7 °F28.4 °F (6:00 pm)20 °F (5:00 am)
Humidity72.1 %100 % (8:00 am)29 % (5:00 pm)
Barometer30.24 in30.53 in (2:00 am)29.95 in (11:00 pm)
Wind Speed8 mph15.7 mph (2:00 pm)
Weather ElementAverage
Visibility5.8 mi
Wind DirectionESE (116.5 °)

Weather ElementTotal
Precipitation---
Heating Degree Days31.2 (Base 65)
Averaged from 31 records on January 17, 2013
WEATHER CONDITIONS BREAKOUT
WIND DIRECTION BREAKOUT
WEATHER BY HOUR - JANUARY 17, 2013
[ °C ]   °F
Local TimeTemperatureDewpointHumidityBarometerVisibilityWind DirectionWind SpeedGust SpeedPrecipitationEventsConditions
1:00 AM28.4 °F24.8 °F86 %30.48 in6.2 miENE (70°)4.5 mphClear
2:00 AM27.0 °F22.0 °F72 %30.53 in6.0 miESE (110°)2.2 mph
2:00 AM24.8 °F23.0 °F93 %30.45 in6.2 miSSE (150°)4.5 mphClear
3:00 AM26.6 °F24.8 °F93 %30.45 in6.2 miEast (100°)6.7 mphClear
4:00 AM24.8 °F23.0 °F93 %30.42 in6.2 miESE (110°)6.7 mphClear
5:00 AM24.0 °F20.0 °F79 %30.47 in6.0 miENE (70°)4.5 mph
5:00 AM23.0 °F21.2 °F93 %30.39 in5.6 miEast (90°)6.7 mphClear
6:00 AM24.8 °F23.0 °F93 %30.36 in3.7 miEast (90°)6.7 mphClear
7:00 AM24.8 °F23.0 °F93 %30.36 in4.3 miEast (100°)6.7 mphClear
8:00 AM23.0 °F20.0 °F83 %30.41 in6.0 miEast (90°)4.5 mph
8:00 AM21.2 °F21.2 °F100 %30.33 in3.7 miEast (100°)4.5 mphClear
9:00 AM24.8 °F23.0 °F93 %30.33 in4.3 miESE (110°)4.5 mphClear
10:00 AM28.4 °F24.8 °F86 %30.33 in5.6 miESE (120°)11.2 mphClear
11:00 AM31.0 °F24.0 °F68 %30.37 in6.0 miESE (110°)11.2 mphScattered Clouds
11:00 AM32.0 °F26.6 °F80 %30.30 in6.2 miESE (110°)13.4 mphPartly Cloudy
12:00 PM35.6 °F26.6 °F70 %30.27 in6.2 miESE (110°)13.4 mphPartly Cloudy
1:00 PM41.0 °F26.6 °F57 %30.21 in6.2 miESE (120°)13.4 mphPartly Cloudy
2:00 PM42.0 °F25.0 °F38 %30.22 in6.0 miEast (100°)13.4 mphClear
2:00 PM42.8 °F26.6 °F53 %30.18 in6.2 miESE (110°)15.7 mphScattered Clouds
3:00 PM46.4 °F24.8 °F43 %30.12 in6.2 miESE (110°)15.7 mphScattered Clouds
4:00 PM46.4 °F24.8 °F43 %30.09 in6.2 miESE (110°)15.7 mphMostly Cloudy
5:00 PM46.0 °F24.0 °F29 %30.12 in6.0 miEast (90°)13.4 mphClear
5:00 PM46.4 °F26.6 °F46 %30.06 in6.2 miESE (110°)13.4 mphScattered Clouds
6:00 PM44.6 °F28.4 °F53 %30.06 in6.2 miESE (110°)11.2 mphPartly Cloudy
7:00 PM41.0 °F28.4 °F61 %30.04 in6.2 miEast (90°)4.5 mphPartly Cloudy
8:00 PM31.0 °F24.0 °F65 %30.02 in6.0 miWest (270°)2.2 mph
8:00 PM37.4 °F28.4 °F70 %30.04 in6.2 miEast (90°)6.7 mphClear
9:00 PM35.6 °F28.4 °F75 %30.01 in6.2 miEast (100°)4.5 mphClear
10:00 PM33.8 °F28.4 °F81 %29.98 in6.2 miCalmClear
11:00 PM31.0 °F24.0 °F65 %30.02 in6.0 miWest (270°)2.2 mph
11:00 PM30.2 °F24.8 °F80 %29.95 in5.6 miWNW (290°)4.5 mphClear
Hourly data recorded from UTAA, located miles away from Kurtile, Turkmenistan







STORIES FROM OUR PARTNERS